Atmospheric History
02/08/2018 18:18  to  2/9/2018 18:18
Change End Date:
To complete the export process:
1) Select all of the data below
2) Copy the data to the clipboard
3) Open a word processor such as Notepad
4) Paste the data into the word processor
5) Save the file

Date/Time (MDT), AirTemp, RH, Dewpoint ,AvgWindSpeed, GustWindSpeed, WindDirection, PrecipType, PrecipIntensity, PrecipAccumulation, PrecipRate
02/09/2018 18:12, 9, 82, 4 ,2, 4, E, Other, Other, ,  
02/09/2018 18:11, 9, 82, 4 ,2, 4, SE, Other, Other, ,  
02/09/2018 18:00, 9, 81, 4 ,2, 4, E, Other, Other, ,  
02/09/2018 17:57, 9, 82, 4 ,3, 4, SE, Other, Other, ,  
02/09/2018 17:50, 9, 81, 4 ,3, 4, SE, Other, Other, ,  
02/09/2018 17:42, 9, 81, 5 ,2, 4, E, Other, Other, ,  
02/09/2018 17:40, 9, 81, 5 ,2, 4, E, Other, Other, ,  
02/09/2018 17:30, 10, 79, 4 ,1, 3, SE, Other, Other, ,  
02/09/2018 17:27, 10, 79, 4 ,1, 4, S, Other, Other, ,  
02/09/2018 17:20, 10, 78, 4 ,3, 4, S, Other, Other, ,  
02/09/2018 17:12, 10, 79, 5 ,2, 3, SE, Other, Other, ,  
02/09/2018 17:10, 10, 79, 5 ,2, 3, SE, Other, Other, ,  
02/09/2018 17:00, 10, 78, 4 ,2, 3, SE, Other, Other, ,  
02/09/2018 16:57, 10, 77, 4 ,1, 2, SE, Other, Other, ,  
02/09/2018 16:50, 11, 75, 5 ,1, 2, S, Other, Other, ,  
02/09/2018 16:42, 10, 75, 4 ,1, 2, SE, Other, Other, ,  
02/09/2018 16:40, 10, 75, 4 ,1, 2, SE, Other, Other, ,  
02/09/2018 16:30, 11, 72, 4 ,1, 2, SE, Other, Other, ,  
02/09/2018 16:28, 12, 72, 4 ,1, 3, S, Other, Other, ,  
02/09/2018 16:20, 11, 76, 5 ,1, 3, S, Other, Other, ,  
02/09/2018 16:12, 11, 73, 4 ,0, 1, W, Other, Other, ,  
02/09/2018 16:10, 12, 72, 4 ,0, 1, W, Other, Other, ,  
02/09/2018 16:00, 11, 75, 5 ,0, 1, S, Other, Other, ,  
02/09/2018 15:57, 11, 76, 5 ,0, 1, S, Other, Other, ,  
02/09/2018 15:50, 11, 76, 5 ,0, 2, S, Other, Other, ,  
02/09/2018 15:42, 11, 74, 4 ,1, 2, S, Other, Other, ,  
02/09/2018 15:40, 11, 74, 4 ,1, 2, S, Other, Other, ,  
02/09/2018 15:30, 10, 76, 4 ,1, 2, S, Other, Other, ,  
02/09/2018 15:27, 10, 75, 4 ,1, 2, S, Other, Other, ,  
02/09/2018 15:20, 10, 78, 5 ,0, 1, SW, Other, Other, ,  
02/09/2018 15:12, 10, 77, 4 ,1, 2, SW, Other, Other, ,  
02/09/2018 15:10, 10, 75, 3 ,1, 2, SW, Other, Other, ,  
02/09/2018 15:00, 10, 77, 4 ,1, 2, S, Other, Other, ,  
02/09/2018 14:57, 10, 78, 4 ,0, 2, E, Other, Other, ,  
02/09/2018 14:50, 10, 77, 5 ,1, 3, S, Other, Other, ,  
02/09/2018 14:42, 10, 77, 4 ,1, 2, SE, Other, Other, ,  
02/09/2018 14:40, 10, 78, 4 ,1, 2, E, Other, Other, ,  
02/09/2018 14:30, 9, 79, 4 ,1, 3, E, Other, Other, ,  
02/09/2018 14:27, 9, 79, 4 ,2, 3, E, Other, Other, ,  
02/09/2018 14:20, 9, 77, 3 ,2, 4, E, Other, Other, ,  
02/09/2018 14:12, 8, 76, 2 ,2, 4, NE, Other, Other, ,  
02/09/2018 14:10, 9, 75, 2 ,3, 4, E, Other, Other, ,  
02/09/2018 14:00, 9, 72, 2 ,2, 4, E, Other, Other, ,  
02/09/2018 13:57, 9, 72, 2 ,2, 3, E, Other, Other, ,  
02/09/2018 13:50, 9, 72, 2 ,2, 6, E, Other, Other, ,  
02/09/2018 13:42, 9, 70, 1 ,4, 6, SE, Other, Other, ,  
02/09/2018 13:39, 9, 67, 0 ,2, 8, SE, Other, Other, ,  
02/09/2018 13:29, 9, 66, 0 ,5, 6, SE, Other, Other, ,  
02/09/2018 13:27, 9, 66, 0 ,3, 5, SE, Other, Other, ,  
02/09/2018 13:19, 9, 66, 0 ,1, 7, E, Other, Other, ,  
02/09/2018 13:12, 9, 65, 0 ,6, 9, SE, Other, Other, ,  
02/09/2018 13:09, 8, 65, -1 ,6, 9, SE, Other, Other, ,  
02/09/2018 12:59, 8, 64, -1 ,5, 7, SE, Other, Other, ,  
02/09/2018 12:57, 9, 64, -1 ,6, 7, SE, Other, Other, ,  
02/09/2018 12:49, 8, 65, -1 ,6, 8, SE, Other, Other, ,  
02/09/2018 12:42, 8, 65, -1 ,7, 8, SE, Other, Other, ,  
02/09/2018 12:39, 8, 64, -2 ,4, 9, SE, Other, Other, ,  
02/09/2018 12:29, 8, 66, -1 ,7, 9, E, Other, Other, ,  
02/09/2018 12:27, 8, 67, -1 ,6, 9, E, Other, Other, ,  
02/09/2018 12:19, 7, 68, -1 ,6, 11, E, Other, Other, ,  
02/09/2018 12:12, 7, 68, -1 ,7, 11, E, Other, Other, ,  
02/09/2018 12:09, 7, 69, -1 ,6, 9, E, Other, Other, ,  
02/09/2018 11:59, 7, 68, -1 ,6, 12, E, Other, Other, ,  
02/09/2018 11:57, 6, 67, -2 ,7, 12, E, Other, Other, ,  
02/09/2018 11:49, 7, 68, -1 ,7, 10, E, Other, Other, ,  
02/09/2018 11:42, 6, 68, -2 ,7, 10, SE, Other, Other, ,  
02/09/2018 11:39, 6, 69, -2 ,6, 12, E, Other, Other, ,  
02/09/2018 11:29, 6, 68, -2 ,10, 12, E, Other, Other, ,  
02/09/2018 11:27, 6, 68, -2 ,7, 12, E, Other, Other, ,  
02/09/2018 11:19, 6, 73, -1 ,7, 12, E, Other, Other, ,  
02/09/2018 11:12, 5, 74, -2 ,9, 12, SE, Other, Other, ,  
02/09/2018 11:09, 5, 73, -2 ,9, 12, E, Other, Other, ,  
02/09/2018 10:59, 5, 76, -1 ,7, 11, E, Other, Other, ,  
02/09/2018 10:57, 5, 76, -1 ,7, 11, E, Other, Other, ,  
02/09/2018 10:49, 5, 75, -1 ,7, 11, SE, Other, Other, ,  
02/09/2018 10:42, 5, 75, -2 ,7, 9, SE, Other, Other, ,  
02/09/2018 10:39, 5, 75, -1 ,6, 12, E, Other, Other, ,  
02/09/2018 10:29, 4, 76, -2 ,9, 13, E, Other, Other, ,  
02/09/2018 10:27, 4, 76, -2 ,9, 16, E, Other, Other, ,  
02/09/2018 10:19, 4, 77, -2 ,11, 16, E, Other, Other, ,  
02/09/2018 10:12, 4, 77, -2 ,10, 16, E, Other, Other, ,  
02/09/2018 10:09, 4, 76, -2 ,11, 16, E, Other, Other, ,  
02/09/2018 09:59, 4, 75, -2 ,10, 14, E, Other, Other, ,  
02/09/2018 09:57, 4, 74, -2 ,11, 14, E, Other, Other, ,  
02/09/2018 09:48, 4, 75, -2 ,11, 14, E, Other, Other, ,  
02/09/2018 09:42, 4, 73, -3 ,9, , E, Other, Other, ,  
02/09/2018 09:38, , ,   , , , -, Other, Other, ,  
02/09/2018 09:27, 4, 75, -2 ,10, 15, E, Other, Other, ,  
02/09/2018 09:24, 4, 76, -2 ,8, 15, E, Other, Other, ,  
02/09/2018 09:14, 4, 73, -3 ,9, 16, E, Other, Other, ,  
02/09/2018 09:12, 4, 73, -3 ,9, 16, E, Other, Other, ,  
02/09/2018 09:03, 4, 72, -3 ,14, 20, E, Other, Other, ,  
02/09/2018 08:57, 4, 70, -4 ,14, 21, E, Other, Other, ,  
02/09/2018 08:53, 4, 71, -4 ,15, 19, E, Other, Other, ,  
02/09/2018 08:43, 3, 72, -3 ,11, 17, E, Other, Other, ,  
02/09/2018 08:42, 4, 72, -3 ,13, 17, E, Other, Other, ,  
02/09/2018 08:33, 4, 72, -3 ,11, 17, E, Other, Other, ,  
02/09/2018 08:27, 4, 71, -4 ,11, 17, E, Other, Other, ,  
02/09/2018 08:23, 4, 70, -4 ,12, 17, E, Other, Other, ,  
02/09/2018 08:13, 4, 70, -4 ,12, 19, E, Other, Other, ,  
02/09/2018 08:12, 3, 70, -4 ,13, 19, E, Other, Other, ,  
02/09/2018 08:03, 3, 70, -4 ,12, 21, E, Other, Other, ,  
02/09/2018 07:58, 3, 71, -4 ,13, 19, E, Other, Other, ,  
02/09/2018 07:53, 3, 70, -4 ,12, 23, E, Other, Other, ,  
02/09/2018 07:43, 3, 69, -4 ,15, 22, E, Other, Other, ,  
02/09/2018 07:42, 3, 69, -4 ,16, 22, E, Other, Other, ,  
02/09/2018 07:33, 3, 70, -4 ,12, 19, E, Other, Other, ,  
02/09/2018 07:27, 3, 70, -4 ,11, 19, SE, Other, Other, ,  
02/09/2018 07:23, 3, 70, -4 ,12, 19, E, Other, Other, ,  
02/09/2018 07:13, 3, 68, -5 ,13, 22, E, Other, Other, ,  
02/09/2018 07:12, 3, 66, -5 ,13, 22, E, Other, Other, ,  
02/09/2018 07:03, 4, 63, -6 ,16, 21, E, Other, Other, ,  
02/09/2018 06:57, 3, 63, -6 ,16, 23, E, Other, Other, ,  
02/09/2018 06:53, 3, 63, -6 ,16, 23, E, Other, Other, ,  
02/09/2018 06:43, 3, 64, -6 ,14, 21, E, Other, Other, ,  
02/09/2018 06:43, 3, 64, -6 ,14, 21, E, Other, Other, ,  
02/09/2018 06:33, 3, 64, -6 ,16, 26, E, Other, Other, ,  
02/09/2018 06:28, 2, 66, -6 ,15, 27, E, Other, Other, ,  
02/09/2018 06:23, 3, 66, -6 ,17, 25, E, Other, Other, ,  
02/09/2018 06:13, 3, 67, -5 ,16, 22, E, Other, Other, ,  
02/09/2018 06:12, 3, 67, -5 ,16, 21, E, Other, Other, ,  
02/09/2018 06:02, 3, 71, -4 ,12, 21, E, Other, Other, ,  
02/09/2018 05:58, 4, 71, -4 ,12, 21, E, Other, Other, ,  
02/09/2018 05:52, 4, 71, -4 ,13, 22, E, Other, Other, ,  
02/09/2018 05:43, 4, 68, -4 ,15, 23, E, Other, Other, ,  
02/09/2018 05:42, 4, 68, -4 ,15, 23, E, Other, Other, ,  
02/09/2018 05:32, 4, 70, -4 ,15, 23, E, Other, Other, ,  
02/09/2018 05:27, 4, 71, -4 ,17, 23, E, Other, Other, ,  
02/09/2018 05:22, 4, 70, -4 ,17, 23, E, Other, Other, ,  
02/09/2018 05:12, 4, 71, -3 ,19, 27, E, Other, Other, ,  
02/09/2018 05:12, 4, 71, -3 ,19, 27, E, Other, Other, ,  
02/09/2018 05:02, 3, 74, -3 ,14, 26, E, Other, Other, ,  
02/09/2018 04:58, 3, 74, -3 ,16, 26, E, Other, Other, ,  
02/09/2018 04:52, 3, 75, -3 ,16, 26, E, Other, Other, ,  
02/09/2018 04:43, 4, 78, -2 ,20, 24, E, Other, Other, ,  
02/09/2018 04:42, 4, 78, -2 ,19, 24, E, Other, Other, ,  
02/09/2018 04:32, 4, 78, -1 ,16, 22, E, Other, Other, ,  
02/09/2018 04:28, 4, 78, -1 ,12, 20, E, Other, Other, ,  
02/09/2018 04:22, 4, 76, -2 ,16, 20, E, Other, Other, ,  
02/09/2018 04:13, 4, 75, -2 ,12, 22, E, Other, Other, ,  
02/09/2018 04:12, 4, 75, -2 ,13, 22, E, Other, Other, ,  
02/09/2018 04:02, 4, 76, -2 ,14, 23, E, Other, Other, ,  
02/09/2018 03:58, 4, 78, -2 ,16, 24, E, Other, Other, ,  
02/09/2018 03:52, 4, 80, -1 ,16, 28, E, Other, Other, ,  
02/09/2018 03:43, 4, 80, -1 ,22, 27, E, Other, Other, ,  
02/09/2018 03:42, 4, 79, -1 ,22, 27, E, Other, Other, ,  
02/09/2018 03:31, 4, 74, -2 ,18, 24, E, Other, Other, ,  
02/09/2018 03:27, 5, 74, -2 ,16, 24, E, Other, Other, ,  
02/09/2018 03:21, 5, 74, -2 ,19, 27, E, Other, Other, ,  
02/09/2018 03:13, 4, 73, -3 ,17, 27, E, Other, Other, ,  
02/09/2018 03:11, 4, 73, -2 ,22, 30, E, Other, Other, ,  
02/09/2018 03:01, 4, 70, -3 ,21, 28, E, Other, Other, ,  
02/09/2018 02:58, 4, 71, -3 ,21, 29, E, Other, Other, ,  
02/09/2018 02:51, 4, 73, -2 ,19, 29, E, Other, Other, ,  
02/09/2018 02:43, 5, 72, -2 ,12, 29, E, Other, Other, ,  
02/09/2018 02:41, 4, 72, -2 ,9, 29, E, Other, Other, ,  
02/09/2018 02:31, 5, 72, -3 ,19, 25, E, Other, Other, ,  
02/09/2018 02:28, 4, 75, -2 ,14, 25, E, Other, Other, ,  
02/09/2018 02:21, 4, 74, -2 ,20, 32, E, Other, Other, ,  
02/09/2018 02:13, 5, 70, -2 ,15, 28, E, Other, Other, ,  
02/09/2018 02:11, 5, 70, -3 ,17, 28, E, Other, Other, ,  
02/09/2018 02:01, 5, 73, -2 ,19, 35, E, Other, Other, ,  
02/09/2018 01:58, 4, 72, -2 ,21, 35, E, Other, Other, ,  
02/09/2018 01:51, 4, 73, -2 ,23, 31, E, Other, Other, ,  
02/09/2018 01:43, 5, 72, -2 ,23, 32, E, Other, Other, ,  
02/09/2018 01:41, 5, 73, -2 ,21, 32, E, Other, Other, ,  
02/09/2018 01:31, 5, 77, 0 ,19, 32, E, Other, Other, ,  
02/09/2018 01:27, 6, 77, 0 ,19, 29, E, Other, Other, ,  
02/09/2018 01:21, 6, 78, 1 ,16, 27, E, Other, Other, ,  
02/09/2018 01:13, 6, 81, 1 ,16, 27, E, Other, Other, ,  
02/09/2018 01:11, 6, 82, 1 ,18, 26, E, Other, Other, ,  
02/09/2018 01:01, 6, 82, 2 ,14, 27, E, Other, Other, ,  
02/09/2018 00:58, 6, 78, 1 ,17, 27, E, Other, Other, ,  
02/09/2018 00:51, 7, 75, 1 ,18, 30, E, Other, Other, ,  
02/09/2018 00:43, 8, 73, 1 ,17, 30, E, Other, Other, ,  
02/09/2018 00:40, 8, 72, 1 ,18, 30, E, Other, Other, ,  
02/09/2018 00:30, 8, 72, 1 ,20, 31, E, Other, Other, ,  
02/09/2018 00:28, 8, 72, 1 ,19, 31, E, Other, Other, ,  
02/09/2018 00:20, 8, 72, 1 ,18, 32, E, Other, Other, ,  
02/09/2018 00:13, 7, 73, 1 ,21, 35, E, Other, Other, ,  
02/09/2018 00:10, 7, 73, 1 ,24, 35, E, Other, Other, ,  
02/09/2018 00:00, 7, 74, 1 ,25, 34, E, Other, Other, ,  
02/08/2018 23:58, 7, 74, 1 ,24, 34, E, Other, Other, ,  
02/08/2018 23:50, 7, 76, 1 ,21, 35, E, Other, Other, ,  
02/08/2018 23:43, 7, 76, 2 ,21, 28, E, Other, Other, ,  
02/08/2018 23:40, 7, 76, 1 ,18, 31, E, Other, Other, ,  
02/08/2018 23:30, 7, 81, 2 ,21, 30, E, Other, Other, ,  
02/08/2018 23:28, 7, 82, 2 ,21, 27, E, Other, Other, ,  
02/08/2018 23:20, 7, 82, 3 ,20, 32, E, Other, Other, ,  
02/08/2018 23:13, 8, 74, 1 ,22, 32, E, Other, Other, ,  
02/08/2018 23:10, 7, 74, 1 ,20, 31, E, Other, Other, ,  
02/08/2018 23:00, 8, 76, 1 ,25, 37, E, Other, Other, ,  
02/08/2018 22:57, 7, 75, 1 ,24, 37, E, Other, Other, ,  
02/08/2018 22:50, 7, 76, 1 ,24, 34, E, Other, Other, ,  
02/08/2018 22:42, 8, 80, 3 ,22, 32, E, Other, Other, ,  
02/08/2018 22:40, 7, 78, 2 ,19, 30, E, Other, Other, ,  
02/08/2018 22:30, 8, 79, 2 ,21, 31, E, Other, Other, ,  
02/08/2018 22:28, 8, 79, 2 ,19, 31, E, Other, Other, ,  
02/08/2018 22:20, 8, 79, 3 ,24, 35, E, Other, Other, ,  
02/08/2018 22:13, 9, 83, 4 ,23, 35, E, Other, Other, ,  
02/08/2018 22:10, 8, 81, 4 ,17, 28, E, Other, Other, ,  
02/08/2018 21:59, 9, 82, 4 ,19, 29, E, Other, Other, ,  
02/08/2018 21:57, 9, 82, 4 ,19, 30, E, Other, Other, ,  
02/08/2018 21:49, 9, 85, 5 ,21, 30, E, Other, Other, ,  
02/08/2018 21:43, 9, 85, 5 ,20, 29, E, Other, Other, ,  
02/08/2018 21:39, 9, 85, 5 ,20, 29, E, Other, Other, ,  
02/08/2018 21:29, 9, 85, 5 ,18, 29, E, Other, Other, ,  
02/08/2018 21:28, 9, 85, 5 ,17, 31, E, Other, Other, ,  
02/08/2018 21:19, 8, 84, 5 ,25, 35, E, Other, Other, ,  
02/08/2018 21:13, 9, 85, 5 ,24, 32, E, Other, Other, ,  
02/08/2018 21:09, 9, 85, 6 ,21, 31, E, Other, Other, ,  
02/08/2018 20:59, 9, 84, 6 ,21, 31, E, Other, Other, ,  
02/08/2018 20:58, 10, 84, 6 ,24, 31, E, Other, Other, ,  
02/08/2018 20:49, 10, 80, 5 ,23, 34, E, Other, Other, ,  
02/08/2018 20:43, 10, 75, 4 ,24, 39, E, Other, Other, ,  
02/08/2018 20:39, 10, 72, 3 ,29, 39, E, Other, Other, ,  
02/08/2018 20:29, 11, 73, 4 ,21, 35, E, Other, Other, ,  
02/08/2018 20:28, 11, 72, 4 ,23, 35, E, Other, Other, ,  
02/08/2018 20:19, 11, 72, 4 ,25, 36, E, Other, Other, ,  
02/08/2018 20:13, 12, 73, 6 ,24, 33, E, Other, Other, ,  
02/08/2018 20:09, 12, 73, 5 ,20, 29, E, Other, Other, ,  
02/08/2018 19:59, 14, 74, 8 ,20, 29, E, Other, Other, ,  
02/08/2018 19:58, 14, 74, 7 ,18, 29, E, Other, Other, ,  
02/08/2018 19:49, 15, 73, 8 ,17, 27, SE, Other, Other, ,  
02/08/2018 19:42, 16, 74, 9 ,16, 29, E, Other, Other, ,  
02/08/2018 19:39, 16, 72, 9 ,21, 29, E, Other, Other, ,  
02/08/2018 19:29, 18, 76, 12 ,14, 23, E, Other, Other, ,  
02/08/2018 19:28, 18, 77, 12 ,12, 27, SE, Other, Other, ,  
02/08/2018 19:18, 17, 75, 10 ,18, 27, SE, Other, Other, ,  
02/08/2018 19:12, 19, 69, 10 ,17, 25, SE, Other, Other, ,  
02/08/2018 19:08, 20, 71, 13 ,13, 20, E, Other, Other, ,  
02/08/2018 18:58, 21, 73, 14 ,12, 20, E, Other, Other, ,  
02/08/2018 18:58, 21, 73, 14 ,13, 20, E, Other, Other, ,  
02/08/2018 18:48, 20, 71, 12 ,16, 25, SE, Other, Other, ,  
02/08/2018 18:43, 20, 73, 13 ,15, 25, E, Other, Other, ,  
02/08/2018 18:38, 20, 72, 12 ,17, 25, SE, Other, Other, ,  
02/08/2018 18:28, 20, 72, 12 ,19, 28, SE, Other, Other, ,  
02/08/2018 18:27, 19, 73, 12 ,17, 28, SE, Other, Other, ,  
02/08/2018 18:18, 19, 70, 11 ,18, 31, SE, Other, Other, ,  
Change End Date:

Copyright © 1998-2015 Vaisala, Inc.
All Rights Reserved
Send comments about the data to:
SCAN Web ® is a registered trademark of Vaisala, Inc.
SCAN Web Version 6.0